Home > Weather > Lübbecke > Past weeks

Flag for Germany Past Weather in Lübbecke, North Rhine-Westphalia, Germany — Yesterday and Last 2 Weeks

Now
75 °F

Passing clouds.


Feels Like: 78 °F
Forecast: 63 / 83 °F
Wind: 13 mph from South

Location: Bueckeburg

Current Time: Aug 26, 2016 at 7:25:13 AM

Latest Report: Aug 26, 2016 at 6:20 AM


Visibility: N/A

Pressure: 29.95 "Hg

Humidity: 44%

Dew Point: 52 °F

Location of LübbeckeLocation

Past Weather in Lübbecke — Graph

°F

Lübbecke Temperature Yesterday

Maximum temperature yesterday: 91 °F (at 3:20 PM)
Minimum temperature yesterday: 68 °F (at 6:20 AM)
Average temperature yesterday: 80 °F

High & Low Weather Summary for the Past Weeks

 TemperatureHumidityPressure
High91 °F (Aug 25, 3:20 PM)100% (Aug 11, 5:20 AM)30.33 "Hg (Aug 11, 5:20 AM)
Low45 °F (Aug 11, 5:20 AM)23% (Aug 25, 5:20 PM)29.80 "Hg (Aug 18, 2:20 PM)
Average65 °F72%30.08 "Hg
* Reported Aug 11 5:20 AM — Aug 26 5:20 AM, Lübbecke, Weather by CustomWeather, © 2016

Note: Actual official high and low records may vary slightly from our data, if they occured in-between our weather recording intervals... More about our weather records

Advertising

Lübbecke Weather History for the Previous 24 Hours

Scroll right to see more
 ConditionsComfort  
Time TempWeatherWind HumidityBarometerVisibility
5:20 AM
Fri, Aug 26
77 °FWarm.14 mph42%29.95 "HgN/A
4:20 AM75 °FMild.12 mph44%29.95 "HgN/A
3:20 AM73 °FMild.12 mph47%29.95 "HgN/A
2:20 AM73 °FMild.9 mph47%29.95 "HgN/A
1:20 AM73 °FMild.8 mph50%29.98 "HgN/A
12:20 AM72 °FMild.7 mph53%29.98 "HgN/A
11:20 PM
Thu, Aug 25
75 °FMild.7 mph44%29.98 "HgN/A
10:20 PM73 °FMild.2 mph50%29.98 "HgN/A
9:20 PM79 °FPleasantly warm.5 mph37%29.98 "HgN/A
8:20 PM82 °FPleasantly warm.6 mph32%29.98 "HgN/A
7:20 PM90 °FHot.9 mph24%29.95 "HgN/A
7:01 PM90 °FHot.12 mph24%29.98 "HgN/A
6:20 PM91 °FHot.10 mph23%29.98 "HgN/A
5:20 PM91 °FPassing clouds.12 mph23%29.98 "HgN/A
4:20 PM91 °FPassing clouds.13 mph24%30.01 "HgN/A
3:20 PM91 °FPassing clouds.12 mph26%30.04 "HgN/A
2:20 PM90 °FPassing clouds.12 mph29%30.04 "HgN/A
1:20 PM88 °FPassing clouds.13 mph33%30.07 "HgN/A
12:20 PM84 °FPassing clouds.10 mph43%30.07 "HgN/A
11:20 AM81 °FWarm.8 mph48%30.09 "HgN/A
10:20 AM79 °FWarm.7 mph51%30.09 "HgN/A
9:20 AM77 °FWarm.7 mph54%30.09 "HgN/A
8:20 AM75 °FMild.3 mph57%30.09 "HgN/A
7:20 AM70 °FMild.7 mph69%30.09 "HgN/A
Weather by CustomWeather, © 2016

See weather overviewHow to use our weather pages